[[{"header":{"parameterUnit":"m.s-1","parameterCategory":1,"la1":30.2991,"la2":30.254,"lo1":-89.0895,"lo2":-89.0444,"dy":0.0017,"dx":0.0017,"nx":28,"ny":28,"refTime":"2023-07-24T03:00:00:Z","depth":0,"parameterNumber":2,"parameterNumberName":"U-component_of_WINDS"},"data":[0,0,0,0,0,0,0,0,0,0,0,0,0,0,0,0,0,0,0,0,0,0,0,0,0,0,0,0,0,0,0,0,0,0,0,0,0,0,0,0,0,0,0,0,0,0,0,0,0,0,0,0,0,0,0,0,0,0,0.0622,0.0623,0,0.0685,0.0685,0.0686,0.0707,0.0707,0.0706,0.0706,0.077,0.0772,0.0774,0,0,0,0,0,0,0,0,0,0,0,0,0,0.0521,0.0523,0.0622,0.0623,0.0624,0.0685,0.0686,0.0686,0.0707,0.0707,0.0706,0.0706,0.0769,0.0772,0.0774,0,0,0,0,0,0,0,0,0,0,0,0,0,0.0572,0.0523,0.0622,0.0641,0.0644,0.0684,0.0686,0.0687,0.0707,0.0707,0.0706,0.0706,0.0769,0.0772,0.0774,0.0801,0,0,0.0783,0.0785,0,0,0,0,0,0,0,0,0.0569,0.0576,0.0638,0.064,0.0643,0.0688,0.0673,0.0725,0.0707,0.0683,0.0706,0.0706,0.0743,0.0748,0.0761,0.0804,0.0806,0.0784,0.0785,0.0787,0.0788,0,0,0,0,0,0,0,0.0566,0.0573,0.0647,0.0639,0.0642,0.0647,0.0654,0.0683,0.0714,0.0685,0.0687,0.0694,0.0744,0.0758,0.0762,0.0807,0.0784,0.0786,0.0788,0.0789,0.0875,0.0875,0,0,0,0,0,0,0.0559,0.057,0.0645,0.0649,0.0604,0.0649,0.0657,0.0674,0.0714,0.072,0.0694,0.0694,0.0753,0.0759,0.0765,0.0798,0.0787,0.0789,0.0791,0.0874,0.0875,0.0875,0,0,0,0,0,0,0.0557,0.0565,0.0642,0.061,0.062,0.0651,0.067,0.0675,0.0689,0.0721,0.0727,0.0702,0.0753,0.076,0.0791,0.08,0.0791,0.0793,0.0874,0.0875,0.0875,0.0864,0,0,0,0,0,0,0.0554,0.0564,0.0575,0.061,0.0622,0.0668,0.0671,0.0677,0.0694,0.0695,0.073,0.0735,0.0753,0.0787,0.0794,0.0804,0.0796,0.0873,0.0874,0.0875,0.0864,0.0864,0.0865,0,0,0,0,0,0.055,0.0569,0.0575,0.0584,0.0635,0.0669,0.0675,0.0695,0.0694,0.0705,0.0726,0.0734,0.0798,0.079,0.0799,0.0809,0.0873,0.0874,0.0875,0.0864,0.0864,0.0865,0,0,0,0,0,0,0.0534,0.0574,0.0581,0.0612,0.0637,0.0672,0.0686,0.0695,0.0721,0.0721,0.0745,0.0752,0.0782,0.0799,0.0789,0.0837,0.0836,0.0839,0.0824,0.0825,0.0826,0.0821,0.0798,0,0,0,0,0,0.0534,0.0557,0.0591,0.0616,0.0628,0.0655,0.067,0.0683,0.071,0.072,0.0743,0.0769,0.0794,0.0811,0.0836,0.0867,0.0874,0.0878,0.0879,0.0879,0.0881,0.0898,0.09,0.0879,0.0879,0.0879,0,0,0.0534,0.0559,0.0573,0.0613,0.0634,0.0658,0.0663,0.0688,0.0706,0.0724,0.0754,0.0772,0.0802,0.0833,0.0848,0.0848,0.0889,0.088,0.088,0.0882,0.0899,0.0901,0.0903,0.088,0.088,0.088,0,0,0.0547,0.0568,0.0591,0.0611,0.0642,0.066,0.0666,0.07,0.0712,0.0743,0.0757,0.0779,0.0823,0.0843,0.0859,0.088,0.0889,0.0888,0.089,0.0907,0.0908,0.091,0.0917,0.0919,0.089,0.089,0.089,0,0.0543,0.058,0.0601,0.0625,0.0643,0.066,0.0683,0.0702,0.074,0.0751,0.0751,0.0807,0.0828,0.0863,0.0868,0.0881,0.0888,0.0884,0.0906,0.0908,0.091,0.0917,0.0919,0.089,0.089,0.089,0.089,0,0.0574,0.0599,0.0613,0.0649,0.0669,0.0692,0.0717,0.0733,0.0745,0.0763,0.0794,0.0821,0.0852,0.0861,0.0873,0.0898,0.0898,0.0902,0.0901,0.0911,0.0918,0.0921,0.0889,0.0889,0.0889,0.0889,0,0,0.0577,0.0625,0.063,0.0647,0.0682,0.0702,0.0727,0.0757,0.0771,0.0796,0.0817,0.0854,0.0858,0.0876,0.0891,0.0905,0.0919,0.0908,0.0909,0.0908,0.0949,0.0945,0.0948,0.0926,0.0926,0.0927,0.0946,0,0.0594,0.0639,0.0658,0.0693,0.0717,0.0734,0.0755,0.0779,0.0796,0.0819,0.0838,0.0864,0.0867,0.0879,0.0894,0.0914,0.0928,0.0913,0.0945,0.0946,0.0936,0.0951,0.0948,0.0964,0.0949,0.0949,0.095,0,0.062,0.0646,0.0683,0.0716,0.0727,0.0745,0.0775,0.0796,0.0824,0.0835,0.0856,0.087,0.0896,0.0894,0.093,0.092,0.0934,0.0946,0.0947,0.0951,0.0948,0.0955,0.097,0.0973,0.0954,0.0954,0.0954,0,0.0618,0.0662,0.069,0.0704,0.0743,0.0756,0.0773,0.0801,0.0817,0.0843,0.0854,0.0883,0.0898,0.092,0.0941,0.0938,0.0975,0.0975,0.0985,0.0985,0.0992,0.0991,0.101,0.1002,0.1002,0.1002,0.1002,0,0.0635,0.0657,0.069,0.0707,0.0733,0.0755,0.078,0.0798,0.0822,0.0843,0.086,0.0879,0.0906,0.0928,0.0945,0.0972,0.0979,0.0989,0.0993,0.0987,0.0986,0.0997,0.0996,0.1002,0.1002,0.1002,0.1002,0,0.0637,0.066,0.0692,0.0727,0.0736,0.0753,0.0783,0.08,0.0818,0.0844,0.0852,0.0881,0.0908,0.0931,0.0968,0.0979,0.1007,0.1012,0.0997,0.0999,0.1008,0.1007,0.1034,0.1038,0.1028,0.1028,0.1028,0,0.0646,0.0663,0.07,0.0715,0.0732,0.0756,0.0774,0.0797,0.0814,0.0847,0.0861,0.0889,0.0913,0.0957,0.0981,0.1008,0.1014,0.1022,0.1018,0.1012,0.1014,0.1012,0.1014,0.1022,0.1022,0.1022,0.1022,0,0.0659,0.067,0.0694,0.0723,0.0743,0.0767,0.0791,0.0802,0.083,0.0848,0.0877,0.0896,0.0933,0.0961,0.0991,0.1009,0.102,0.1022,0.1026,0.102,0.1011,0.1016,0.0997,0.1022,0.1022,0.1022,0.1022,0.1022,0.0665,0.0681,0.0709,0.0736,0.0756,0.0778,0.0796,0.0817,0.0841,0.0873,0.0885,0.0914,0.0941,0.0983,0.1001,0.1024,0.1025,0.1031,0.1032,0.1033,0.1032,0.1008,0.1029,0.103,0.103,0.103,0.103,0,0.0678,0.0697,0.0721,0.0755,0.0776,0.0784,0.0811,0.0828,0.0854,0.0878,0.0902,0.0934,0.0962,0.0988,0.1017,0.103,0.1036,0.1037,0.1036,0.104,0.1029,0.1023,0.1032,0.1032,0.1032,0.1032,0.1032,0.1032,0.0687,0.0715,0.0729,0.0767,0.0786,0.0815,0.083,0.085,0.087,0.0905,0.0928,0.0945,0.0971,0.1001,0.1027,0.1034,0.1044,0.1043,0.1051,0.1041,0.104,0.104,0.1034,0.1045,0.1045,0.106,0.106,0.106]},{"header":{"parameterUnit":"m.s-1","parameterCategory":1,"la1":30.2991,"la2":30.254,"lo1":-89.0895,"lo2":-89.0444,"dy":0.0017,"dx":0.0017,"nx":28,"ny":28,"refTime":"2023-07-24T03:00:00:Z","depth":0,"parameterNumber":3,"parameterNumberName":"V-component_of_WINDS"},"data":[0,0,0,0,0,0,0,0,0,0,0,0,0,0,0,0,0,0,0,0,0,0,0,0,0,0,0,0,0,0,0,0,0,0,0,0,0,0,0,0,0,0,0,0,0,0,0,0,0,0,0,0,0,0,0,0,0,0,-0.2784,-0.2785,0,-0.2836,-0.2836,-0.2837,-0.2837,-0.2836,-0.2835,-0.2835,-0.2889,-0.2891,-0.2893,0,0,0,0,0,0,0,0,0,0,0,0,0,-0.2687,-0.2689,-0.2784,-0.2785,-0.2785,-0.2836,-0.2836,-0.2837,-0.2837,-0.2836,-0.2835,-0.2834,-0.2888,-0.289,-0.2893,0,0,0,0,0,0,0,0,0,0,0,0,0,-0.2733,-0.269,-0.2784,-0.2791,-0.2793,-0.2835,-0.2836,-0.2837,-0.2837,-0.2836,-0.2835,-0.2834,-0.2887,-0.289,-0.2893,-0.2933,0,0,-0.2903,-0.2904,0,0,0,0,0,0,0,0,-0.2731,-0.2737,-0.279,-0.2791,-0.2792,-0.2829,-0.2822,-0.2869,-0.2837,-0.282,-0.2835,-0.2834,-0.287,-0.2874,-0.2886,-0.2935,-0.2937,-0.2903,-0.2905,-0.2906,-0.2907,0,0,0,0,0,0,0,-0.2727,-0.2735,-0.2805,-0.279,-0.2792,-0.2793,-0.2798,-0.2831,-0.285,-0.2822,-0.2822,-0.2828,-0.287,-0.2883,-0.2887,-0.2938,-0.2903,-0.2906,-0.2908,-0.2909,-0.3024,-0.3025,0,0,0,0,0,0,-0.2723,-0.2732,-0.2803,-0.2806,-0.2758,-0.2795,-0.2801,-0.2818,-0.285,-0.2853,-0.2829,-0.2828,-0.2878,-0.2884,-0.2889,-0.2939,-0.2906,-0.2909,-0.2911,-0.3023,-0.3024,-0.3026,0,0,0,0,0,0,-0.272,-0.2729,-0.2801,-0.2769,-0.2778,-0.2798,-0.2817,-0.282,-0.2833,-0.2855,-0.2858,-0.2838,-0.2878,-0.2885,-0.2922,-0.2941,-0.2911,-0.2913,-0.3021,-0.3023,-0.3025,-0.3037,0,0,0,0,0,0,-0.2718,-0.2728,-0.2743,-0.2769,-0.278,-0.2832,-0.2818,-0.2821,-0.2838,-0.2837,-0.2865,-0.2868,-0.2877,-0.2918,-0.2925,-0.2944,-0.2916,-0.302,-0.3022,-0.3024,-0.3035,-0.3039,-0.3042,0,0,0,0,0,-0.2714,-0.2744,-0.2744,-0.2752,-0.2799,-0.2833,-0.284,-0.2849,-0.2839,-0.2855,-0.2869,-0.2868,-0.2937,-0.2921,-0.293,-0.295,-0.3019,-0.3022,-0.3024,-0.3034,-0.3038,-0.3042,0,0,0,0,0,0,-0.2719,-0.2748,-0.2747,-0.2787,-0.2808,-0.2833,-0.2853,-0.2853,-0.2878,-0.2876,-0.2887,-0.2894,-0.2931,-0.2944,-0.2926,-0.2991,-0.2977,-0.2981,-0.2981,-0.2986,-0.2989,-0.2986,-0.2918,0,0,0,0,0,-0.2725,-0.275,-0.2774,-0.2806,-0.2817,-0.2833,-0.2849,-0.2854,-0.2876,-0.2885,-0.2903,-0.2925,-0.2952,-0.2969,-0.2995,-0.3037,-0.3044,-0.3055,-0.3059,-0.3062,-0.3066,-0.309,-0.3096,-0.3034,-0.3034,-0.3034,0,0,-0.2737,-0.2756,-0.2771,-0.2808,-0.2825,-0.2852,-0.2841,-0.2869,-0.289,-0.289,-0.2926,-0.294,-0.2965,-0.3005,-0.3024,-0.3018,-0.3084,-0.3065,-0.3067,-0.307,-0.3094,-0.31,-0.3105,-0.3036,-0.3036,-0.3036,0,0,-0.2773,-0.2789,-0.2818,-0.2836,-0.2861,-0.2872,-0.2879,-0.2905,-0.2914,-0.2951,-0.2952,-0.2977,-0.3022,-0.3041,-0.3056,-0.31,-0.31,-0.3108,-0.3128,-0.3152,-0.3157,-0.3161,-0.3178,-0.3184,-0.3112,-0.3112,-0.3112,0,-0.2785,-0.2825,-0.2834,-0.2863,-0.2879,-0.2881,-0.2911,-0.2928,-0.2961,-0.2973,-0.2965,-0.3023,-0.304,-0.3086,-0.3096,-0.3108,-0.3118,-0.3106,-0.3155,-0.316,-0.3164,-0.318,-0.3187,-0.3113,-0.3113,-0.3113,-0.3113,0,-0.2839,-0.2867,-0.2888,-0.292,-0.2939,-0.2968,-0.2982,-0.3,-0.3004,-0.3016,-0.3054,-0.3075,-0.3106,-0.3117,-0.3121,-0.3163,-0.3158,-0.3153,-0.3139,-0.3171,-0.3186,-0.3192,-0.3115,-0.3114,-0.3114,-0.3114,0,0,-0.288,-0.2917,-0.2924,-0.294,-0.2968,-0.299,-0.302,-0.305,-0.3067,-0.3089,-0.3116,-0.3155,-0.315,-0.3168,-0.3174,-0.3194,-0.323,-0.3187,-0.3187,-0.3195,-0.3279,-0.3284,-0.3291,-0.323,-0.3231,-0.3232,-0.3278,0,-0.292,-0.2973,-0.2982,-0.3029,-0.3056,-0.3058,-0.3084,-0.3105,-0.3117,-0.3142,-0.3156,-0.3184,-0.3175,-0.3185,-0.3206,-0.3221,-0.3247,-0.3218,-0.3255,-0.3257,-0.325,-0.3299,-0.3305,-0.3347,-0.3284,-0.3285,-0.3285,0,-0.2974,-0.2999,-0.3048,-0.3075,-0.3086,-0.311,-0.3139,-0.3162,-0.3186,-0.3193,-0.3213,-0.3217,-0.325,-0.3234,-0.3279,-0.3259,-0.3275,-0.3285,-0.3287,-0.3292,-0.3274,-0.3307,-0.336,-0.3367,-0.3295,-0.3294,-0.3293,0,-0.3001,-0.3046,-0.3082,-0.3095,-0.3126,-0.3143,-0.3157,-0.318,-0.3198,-0.3223,-0.3235,-0.3263,-0.3279,-0.3302,-0.3314,-0.3301,-0.3359,-0.3344,-0.3367,-0.3367,-0.338,-0.3379,-0.3438,-0.3388,-0.3388,-0.3388,-0.3388,0,-0.3046,-0.3076,-0.3095,-0.3117,-0.3152,-0.3162,-0.3196,-0.321,-0.3231,-0.3256,-0.3259,-0.3284,-0.3297,-0.3324,-0.3333,-0.337,-0.3377,-0.3385,-0.3387,-0.3385,-0.3384,-0.3397,-0.3395,-0.339,-0.3389,-0.3389,-0.3389,0,-0.3082,-0.3095,-0.3135,-0.3161,-0.3168,-0.3193,-0.3216,-0.3238,-0.325,-0.3283,-0.3291,-0.331,-0.3341,-0.3355,-0.3393,-0.34,-0.3443,-0.3442,-0.3434,-0.3436,-0.3459,-0.3457,-0.3529,-0.3539,-0.3481,-0.3481,-0.3482,0,-0.311,-0.3134,-0.3163,-0.318,-0.3194,-0.3222,-0.324,-0.3252,-0.3271,-0.3301,-0.332,-0.3351,-0.3377,-0.3427,-0.3444,-0.3474,-0.3475,-0.3498,-0.348,-0.3478,-0.3477,-0.3476,-0.3479,-0.3502,-0.3503,-0.3503,-0.3503,0,-0.3159,-0.3165,-0.3191,-0.322,-0.3242,-0.3265,-0.3288,-0.3302,-0.3317,-0.3338,-0.337,-0.339,-0.3429,-0.3461,-0.3492,-0.3507,-0.3509,-0.3509,-0.3516,-0.3515,-0.351,-0.3515,-0.3445,-0.3508,-0.3507,-0.3507,-0.3507,-0.3507,-0.3193,-0.3215,-0.3239,-0.3269,-0.3287,-0.3308,-0.3331,-0.3346,-0.3372,-0.3405,-0.341,-0.3445,-0.347,-0.3511,-0.3528,-0.3555,-0.355,-0.356,-0.3563,-0.3565,-0.3568,-0.3505,-0.3561,-0.3561,-0.3561,-0.356,-0.356,0,-0.3244,-0.326,-0.3287,-0.3319,-0.3342,-0.334,-0.3366,-0.3386,-0.3416,-0.3439,-0.3464,-0.3501,-0.3532,-0.3552,-0.3584,-0.3602,-0.3603,-0.361,-0.3609,-0.3613,-0.357,-0.3561,-0.3608,-0.3608,-0.3608,-0.3608,-0.3608,-0.3608,-0.3273,-0.331,-0.3319,-0.3366,-0.3381,-0.3415,-0.343,-0.345,-0.3468,-0.351,-0.3535,-0.3548,-0.357,-0.3603,-0.3632,-0.3637,-0.3649,-0.3656,-0.3661,-0.3621,-0.3616,-0.3611,-0.3603,-0.3658,-0.3658,-0.3702,-0.3703,-0.3703]}]]